Location: Asheville, NC
(35.6000°N, 82.5500°W)
Time: 21:17:19
(UTC-04:00)

XW-2C - Pass Details

Date: 12 January 2018
Orbit: 509 x 531 km, 97.5° (Epoch: 19 June)

Event Time Altitude Azimuth Distance (km) Brightness Sun altitude
Rises 06:25:12 0° 14° (NNE) 2,651 ? -15.0°
Reaches altitude 10° 06:27:20 10° 17° (NNE) 1,755 ? -14.6°
Maximum altitude 06:31:06 68° 101° (E) 556 ? -13.8°
Drops below altitude 10° 06:34:48 10° 185° (S) 1,729 ? -13.1°
Sets 06:36:53 0° 188° (S) 2,607 ? -12.7°
